FIN61 EFHK-RJTT

Flight info

Callsign FIN61
Flight time N/A
Altitude 34000
Route TEVRU Y75 USUPO DCT VATAX DCT 78N000E/M085F340 81N020W 82N040W 82N060W/N0494F340 82N080W 82N100W/N0493F360 81N120W DCT OMEKA DCT JUJXI DCT MARCC/N0497F380 R338 NATES R220 NUZAN/N0497F390 R220 NOGAL/N0496F400 R220 NANAC Y810 AKRIT Y807 POLIX
Aircraft A359/H-SDE2E3GHIJ1J3J4J5LM1ORWXY/LB1D1

Departure

Time 2026-04-24 04:00
Airport Helsinki Vantaa Airport (EFHK)

Arrival

Time N/A
Airport Tokyo Haneda International Airport (RJTT)
Time Latitude Longitude Altitude Speed Heading
2026-04-24 03:33 60.31563 24.95807 173 ft 0 kts 137°
2026-04-24 03:46 60.31580 24.95777 161 ft 4 kts 137°
2026-04-24 03:47 60.31597 24.95745 175 ft 2 kts 137°
2026-04-24 03:47 60.31609 24.95713 173 ft 4 kts 78°
2026-04-24 03:47 60.31598 24.95673 173 ft 4 kts 46°
2026-04-24 03:47 60.31579 24.95634 173 ft 4 kts 47°
2026-04-24 03:48 60.31561 24.95594 173 ft 4 kts 47°
2026-04-24 03:48 60.31554 24.95580 173 ft 5 kts 47°
2026-04-24 03:51 60.31556 24.95582 173 ft 1 kts 47°
2026-04-24 03:51 60.31579 24.95632 173 ft 8 kts 47°
2026-04-24 03:51 60.31632 24.95665 173 ft 8 kts 344°
2026-04-24 03:52 60.31672 24.95600 173 ft 7 kts 317°
2026-04-24 03:52 60.31706 24.95549 174 ft 4 kts 339°
2026-04-24 03:52 60.31721 24.95551 175 ft 1 kts
2026-04-24 03:52 60.31723 24.95551 175 ft 0 kts
2026-04-24 03:53 60.31728 24.95553 175 ft 2 kts
2026-04-24 03:53 60.31762 24.95568 177 ft 9 kts 22°
2026-04-24 03:53 60.31820 24.95719 176 ft 17 kts 49°
2026-04-24 03:54 60.31905 24.95905 176 ft 9 kts 47°
2026-04-24 03:54 60.31958 24.95953 177 ft 11 kts 348°
2026-04-24 03:54 60.32031 24.95840 180 ft 14 kts 317°
2026-04-24 03:54 60.32098 24.95715 179 ft 14 kts 317°
2026-04-24 03:55 60.32168 24.95585 179 ft 13 kts 317°
2026-04-24 03:55 60.32230 24.95471 181 ft 12 kts 317°
2026-04-24 03:55 60.32289 24.95362 182 ft 11 kts 317°
2026-04-24 03:55 60.32356 24.95266 183 ft 13 kts 335°
2026-04-24 03:56 60.32444 24.95206 201 ft 14 kts 342°
2026-04-24 03:56 60.32541 24.95143 203 ft 16 kts 342°
2026-04-24 03:56 60.32651 24.95071 198 ft 17 kts 342°
2026-04-24 03:56 60.32772 24.94992 183 ft 19 kts 342°
2026-04-24 03:57 60.32902 24.94893 181 ft 17 kts 327°
2026-04-24 03:57 60.32977 24.94758 201 ft 13 kts 317°
2026-04-24 03:57 60.33032 24.94657 204 ft 8 kts 317°
2026-04-24 03:57 60.33071 24.94585 204 ft 7 kts 317°
2026-04-24 03:58 60.33098 24.94534 205 ft 4 kts 317°
2026-04-24 03:58 60.33108 24.94516 209 ft 0 kts 317°
2026-04-24 03:58 60.33111 24.94510 210 ft 2 kts 317°
2026-04-24 03:58 60.33126 24.94442 207 ft 9 kts 270°
2026-04-24 03:59 60.33100 24.94359 210 ft 0 kts 227°
2026-04-24 03:59 60.33099 24.94354 201 ft 4 kts 227°
2026-04-24 03:59 60.32981 24.94092 205 ft 57 kts 228°
2026-04-24 03:59 60.32550 24.93142 184 ft 124 kts 227°
2026-04-24 04:00 60.31829 24.91548 192 ft 178 kts 231°
2026-04-24 04:00 60.31037 24.89706 871 ft 171 kts 242°
2026-04-24 04:00 60.30695 24.87486 1514 ft 173 kts 272°
2026-04-24 04:00 60.30926 24.84992 1881 ft 189 kts 295°
2026-04-24 04:01 60.31426 24.82482 2177 ft 199 kts 292°
2026-04-24 04:01 60.31731 24.79671 2450 ft 211 kts 282°
2026-04-24 04:01 60.32094 24.76719 2628 ft 224 kts 296°
2026-04-24 04:01 60.32808 24.73831 2927 ft 233 kts 302°
2026-04-24 04:02 60.33604 24.70957 3346 ft 240 kts 302°
2026-04-24 04:02 60.34429 24.67983 3801 ft 244 kts 302°
2026-04-24 04:02 60.35380 24.65132 4296 ft 244 kts 315°
2026-04-24 04:02 60.36742 24.63136 4827 ft 243 kts 338°
2026-04-24 04:03 60.38402 24.62464 5255 ft 247 kts
2026-04-24 04:03 60.40107 24.62986 5760 ft 250 kts 11°
2026-04-24 04:03 60.41792 24.63785 6288 ft 252 kts 12°
2026-04-24 04:03 60.43504 24.64605 6818 ft 252 kts 12°
2026-04-24 04:04 60.45220 24.65411 7358 ft 253 kts 11°
2026-04-24 04:04 60.46932 24.66208 7971 ft 252 kts 11°
2026-04-24 04:04 60.48638 24.66996 8570 ft 250 kts 10°
2026-04-24 04:04 60.50319 24.67768 9169 ft 250 kts 10°
2026-04-24 04:05 60.52014 24.68547 9765 ft 250 kts
2026-04-24 04:05 60.53727 24.69332 10194 ft 256 kts
2026-04-24 04:05 60.55505 24.70142 10445 ft 268 kts
2026-04-24 04:05 60.57371 24.70995 10689 ft 280 kts
2026-04-24 04:06 60.59287 24.71874 10938 ft 291 kts
2026-04-24 04:06 60.61307 24.72804 11190 ft 303 kts 10°
2026-04-24 04:06 60.63398 24.73769 11433 ft 313 kts 10°
2026-04-24 04:06 60.65565 24.74769 11688 ft 324 kts 10°
2026-04-24 04:07 60.67797 24.75801 12041 ft 331 kts 10°
2026-04-24 04:07 60.70053 24.76849 12545 ft 333 kts 10°
2026-04-24 04:07 60.72291 24.77889 13063 ft 335 kts 10°
2026-04-24 04:07 60.74576 24.78952 13571 ft 337 kts 10°
2026-04-24 04:08 60.76866 24.80018 14034 ft 339 kts 10°
2026-04-24 04:08 60.79170 24.81092 14514 ft 339 kts 10°
2026-04-24 04:08 60.81475 24.82148 14987 ft 340 kts
2026-04-24 04:08 60.83807 24.82967 15492 ft 340 kts
2026-04-24 04:09 60.86157 24.83597 15993 ft 340 kts
2026-04-24 04:09 60.88508 24.84132 16452 ft 341 kts
2026-04-24 04:09 60.90879 24.84640 16919 ft 342 kts
2026-04-24 04:09 60.93260 24.85153 17381 ft 344 kts
2026-04-24 04:10 60.95617 24.85676 17845 ft 345 kts
2026-04-24 04:10 60.98009 24.86226 18268 ft 346 kts
2026-04-24 04:10 61.00422 24.86791 18588 ft 350 kts
2026-04-24 04:11 61.05288 24.87948 19380 ft 354 kts
2026-04-24 04:11 61.07750 24.88537 19798 ft 355 kts
2026-04-24 04:11 61.10212 24.89129 20230 ft 357 kts
2026-04-24 04:11 61.12659 24.89716 20647 ft 358 kts
2026-04-24 04:12 61.15139 24.90313 21134 ft 359 kts
2026-04-24 04:12 61.17621 24.90911 21591 ft 360 kts
2026-04-24 04:12 61.20116 24.91511 21978 ft 361 kts
2026-04-24 04:12 61.22631 24.92117 22374 ft 363 kts
2026-04-24 04:13 61.25147 24.92723 22780 ft 365 kts
2026-04-24 04:13 61.27655 24.93329 23172 ft 367 kts
2026-04-24 04:13 61.30200 24.93946 23547 ft 368 kts
2026-04-24 04:13 61.32752 24.94566 23888 ft 370 kts
2026-04-24 04:14 61.35319 24.95190 24240 ft 370 kts
2026-04-24 04:14 61.37889 24.95816 24619 ft 371 kts
2026-04-24 04:14 61.40431 24.96436 24976 ft 371 kts
2026-04-24 04:14 61.42136 24.96853 25212 ft 372 kts
2026-04-24 04:15 61.44718 24.97484 25593 ft 373 kts
2026-04-24 04:15 61.48134 24.98323 26118 ft 372 kts
2026-04-24 04:15 61.49884 24.98752 26342 ft 373 kts
2026-04-24 04:15 61.52442 24.99380 26672 ft 374 kts
2026-04-24 04:16 61.55039 25.00019 27012 ft 375 kts
2026-04-24 04:16 61.57637 25.00632 27324 ft 375 kts
2026-04-24 04:16 61.60222 25.00802 27648 ft 374 kts 356°
2026-04-24 04:16 61.62818 25.00289 27943 ft 375 kts 351°
2026-04-24 04:17 61.65377 24.99150 28234 ft 376 kts 347°
2026-04-24 04:17 61.67920 24.97812 28543 ft 377 kts 346°
2026-04-24 04:17 61.70466 24.96376 28830 ft 378 kts 346°
2026-04-24 04:17 61.72374 24.95266 29024 ft 379 kts 346°
2026-04-24 04:18 61.74708 24.93893 29203 ft 380 kts 346°
2026-04-24 04:18 61.77286 24.92375 29298 ft 385 kts 346°
2026-04-24 04:18 61.79872 24.90858 29642 ft 384 kts 345°
2026-04-24 04:18 61.82426 24.89365 29978 ft 383 kts 346°
2026-04-24 04:19 61.85005 24.87861 30143 ft 385 kts 346°
2026-04-24 04:19 61.87594 24.86352 30318 ft 386 kts 346°
2026-04-24 04:19 61.90186 24.84841 30539 ft 386 kts 346°
2026-04-24 04:19 61.92772 24.83330 30756 ft 386 kts 346°
2026-04-24 04:20 61.95366 24.81813 30989 ft 386 kts 346°
2026-04-24 04:20 61.97962 24.80292 31182 ft 386 kts 346°
2026-04-24 04:20 62.00560 24.78767 31382 ft 386 kts 346°
2026-04-24 04:20 62.03115 24.77264 31568 ft 386 kts 346°
2026-04-24 04:21 62.05709 24.75736 31777 ft 386 kts 346°
2026-04-24 04:21 62.08301 24.74205 31953 ft 385 kts 346°
2026-04-24 04:21 62.10861 24.72691 32127 ft 385 kts 346°
2026-04-24 04:21 62.13450 24.71157 32313 ft 385 kts 346°
2026-04-24 04:22 62.16036 24.69623 32539 ft 385 kts 345°
2026-04-24 04:22 62.18618 24.68087 32771 ft 383 kts 345°
2026-04-24 04:22 62.23736 24.65037 32959 ft 384 kts 345°
2026-04-24 04:23 62.26316 24.63495 33140 ft 384 kts 345°
2026-04-24 04:23 62.28886 24.61956 33282 ft 384 kts 345°
2026-04-24 04:23 62.31468 24.60408 33444 ft 383 kts 345°
2026-04-24 04:23 62.34041 24.58861 33594 ft 383 kts 345°
2026-04-24 04:24 62.36610 24.57316 33731 ft 383 kts 345°
2026-04-24 04:24 62.39174 24.55769 33842 ft 383 kts 345°
2026-04-24 04:24 62.44319 24.52658 33852 ft 388 kts 345°
2026-04-24 04:25 62.49557 24.49480 33857 ft 390 kts 345°
2026-04-24 04:25 62.54747 24.46318 33854 ft 389 kts 345°
2026-04-24 04:26 62.59967 24.43126 33855 ft 389 kts 345°
2026-04-24 04:26 62.65179 24.39928 33856 ft 389 kts 345°
2026-04-24 04:27 62.70355 24.36741 33859 ft 389 kts 345°
2026-04-24 04:27 62.75594 24.33505 33852 ft 390 kts 345°
2026-04-24 04:28 62.80825 24.30260 33855 ft 390 kts 345°
2026-04-24 04:28 62.86031 24.27019 33856 ft 390 kts 345°
2026-04-24 04:29 62.91252 24.23757 33863 ft 390 kts 345°
2026-04-24 04:29 62.96507 24.20462 33859 ft 393 kts 345°
2026-04-24 04:30 63.01766 24.17150 33859 ft 393 kts 345°
2026-04-24 04:30 63.06964 24.13864 33859 ft 393 kts 345°
2026-04-24 04:31 63.12231 24.10524 33859 ft 393 kts 345°
2026-04-24 04:31 63.17457 24.07197 33853 ft 393 kts 345°
2026-04-24 04:32 63.22723 24.03831 33854 ft 394 kts 345°
2026-04-24 04:32 63.27989 24.00453 33894 ft 394 kts 344°
2026-04-24 04:33 63.33226 23.97081 33853 ft 392 kts 344°
2026-04-24 04:33 63.38473 23.93688 33850 ft 392 kts 344°
2026-04-24 04:34 63.43723 23.90282 33850 ft 392 kts 344°
2026-04-24 04:34 63.48952 23.86876 33852 ft 392 kts 344°
2026-04-24 04:35 63.54199 23.83446 33850 ft 392 kts 344°
2026-04-24 04:35 63.59416 23.80022 33851 ft 392 kts 344°
2026-04-24 04:36 63.64643 23.76578 33838 ft 392 kts 344°
2026-04-24 04:36 63.69731 23.73214 33861 ft 394 kts 344°
2026-04-24 04:37 63.74981 23.69728 33862 ft 394 kts 344°
2026-04-24 04:37 63.80177 23.66265 33863 ft 394 kts 344°
2026-04-24 04:38 63.85436 23.62746 33856 ft 394 kts 344°
2026-04-24 04:38 63.90699 23.59211 33855 ft 394 kts 344°
2026-04-24 04:39 63.95922 23.55690 33856 ft 394 kts 344°
2026-04-24 04:39 64.00905 23.52317 33856 ft 394 kts 343°
2026-04-24 04:40 64.05503 23.49194 33867 ft 394 kts 343°
2026-04-24 04:40 64.09765 23.46289 33853 ft 393 kts 343°
2026-04-24 04:41 64.13902 23.43461 33856 ft 393 kts 343°
2026-04-24 04:41 64.18403 23.40373 33854 ft 393 kts 343°
2026-04-24 04:42 64.22393 23.37627 33855 ft 393 kts 343°